Temp
9 9 9 8 7 8 10 10 10 10 10 11 11 12 12 11 11 12 16 16 15 13 15 16 17 18 19 19 19 20 21 23 24 23 22 21 21 21 21 21 23 24 24 24 22
9 8 8 8 8 8 9 10 10 10 10 10 11 12 11 11 13 15 13 13 13 14 17 18 18 19 19 18 19 20 21 23 21 21 21 20 20 20 20 22 22 23 23 23 23
9 8 8 7 7 8 9 9 9 9 10 10 10 13 11 12 15 15 12 13 13 14 17 18 18 19 18 19 18 19 20 19 19 18 18 19 19 20 19 20 22 22 23 23 22
8 8 8 8 7 8 8 9 9 9 9 10 10 11 11 10 12 12 12 13 13 14 16 17 18 18 19 18 18 18 17 18 18 16 16 17 19 18 19 20 22 21 21 21 20
9 8 8 8 8 7 7 9 9 9 9 9 10 10 11 11 10 10 11 13 14 15 16 18 18 19 19 18 18 18 17 16 17 16 16 17 17 18 19 20 21 21 20 19 19
8 7 7 8 8 8 8 9 9 9 9 10 10 10 10 10 8 10 11 13 14 15 16 17 18 19 18 17 18 17 16 17 16 17 16 16 17 17 20 20 19 19 19 19 19
8 7 7 8 9 8 9 9 9 9 9 9 11 11 10 9 8 8 12 13 13 15 15 15 17 18 17 16 16 16 16 17 17 17 17 15 18 18 20 21 19 19 20 20 20
8 8 8 8 8 8 8 9 10 9 10 10 10 11 9 8 9 11 13 13 13 13 13 14 15 16 17 16 16 17 16 18 18 16 16 15 19 21 20 20 20 20 21 21 21
8 7 8 8 10 9 9 9 9 10 10 11 11 11 9 8 8 11 14 14 13 13 13 14 15 14 15 16 17 17 19 17 18 16 16 15 18 20 20 20 20 20 21 21 21
7 8 9 8 9 9 9 10 10 11 11 11 10 11 8 8 8 12 13 14 14 14 14 14 14 15 16 15 18 20 18 18 18 17 16 16 16 18 20 20 20 20 21 21 20
7 8 9 9 9 9 9 10 12 9 9 9 8 8 8 8 9 12 13 14 15 15 15 14 14 14 16 16 16 17 17 18 19 18 15 17 18 19 20 20 20 20 19 19 19
8 8 9 10 10 9 10 10 8 9 7 8 8 8 8 8 9 13 13 14 15 14 14 15 14 14 14 14 14 15 16 18 18 16 16 17 17 19 19 19 18 18 18 18 18
7 8 8 8 9 8 8 7 8 9 7 7 7 8 8 10 11 12 14 14 15 14 15 16 14 13 14 14 14 16 16 16 15 16 18 17 19 19 19 18 18 16 17 17 17
8 9 9 9 11 9 8 7 7 8 11 8 9 8 10 11 12 13 13 13 14 13 15 14 13 13 14 14 15 16 15 15 15 15 14 16 13 18 18 18 16 14 14 12 12
9 9 10 10 10 11 8 7 8 10 12 9 10 11 12 12 12 13 12 14 13 13 14 14 13 13 14 14 14 15 15 15 15 14 12 16 12 16 16 15 14 12 12 11 11
10 10 9 10 10 8 9 8 9 11 10 9 12 12 12 12 12 13 13 14 13 13 14 14 13 14 15 14 14 15 15 16 14 13 13 17 14 16 12 13 12 10 10 10 11
10 11 9 8 11 8 8 10 12 11 10 11 12 13 13 12 13 13 13 14 14 12 14 14 14 14 13 14 14 14 15 15 15 14 16 16 15 15 14 13 9 9 10 9 10
12 11 9 8 7 7 9 14 11 11 11 12 13 13 13 13 13 13 14 14 13 14 15 14 13 14 14 15 15 15 15 14 14 16 16 17 14 14 14 11 10 10 10 10 10
12 10 11 9 9 7 14 11 11 12 12 13 13 14 13 13 14 14 14 14 14 14 14 15 14 14 14 15 15 12 13 14 11 15 13 16 12 15 13 12 12 12 12 11 11
12 13 12 11 10 10 13 12 12 13 13 13 14 15 15 14 14 15 14 14 14 14 15 14 13 15 14 14 14 13 11 12 11 13 15 16 15 14 9 10 12 12 13 13 12
12 17 13 13 11 16 10 12 12 12 12 14 14 15 15 15 15 15 15 15 15 14 14 14 12 14 13 13 14 11 11 11 12 14 15 16 17 11 10 12 12 13 13 13 12
13 15 14 13 13 14 13 13 11 13 13 14 14 15 15 14 15 14 14 14 15 14 14 14 13 13 15 16 16 16 15 14 13 14 14 14 16 15 14 14 12 12 14 13 13
15 15 13 12 14 14 12 13 13 14 14 14 15 15 15 15 15 15 15 15 14 14 14 14 13 13 16 15 15 14 16 15 15 14 13 14 17 16 15 14 14 14 14 14 13
15 15 15 15 14 16 14 14 14 13 14 14 14 14 15 15 15 15 15 15 14 14 12 13 13 14 15 16 16 15 16 16 15 13 15 17 19 17 16 16 16 15 15 14 13
13 13 11 14 15 15 14 14 14 14 14 14 14 15 15 16 16 16 15 15 14 13 13 13 13 13 14 15 16 16 15 16 14 14 15 19 17 19 18 17 17 17 15 14 13
15 14 12 13 12 14 12 15 15 14 14 15 15 15 15 15 16 16 15 15 16 14 14 14 13 14 14 17 15 14 16 16 16 16 15 16 17 19 20 19 18 17 15 14 14
9 10 13 10 13 14 16 16 15 14 14 14 15 15 15 15 15 15 15 16 15 15 15 14 13 14 14 16 15 16 18 17 17 17 17 16 19 20 19 18 18 17 16 15 14
Height
754 752 747 741 738 733 735 744 748 751 754 755 756 758 765 771 774 778 775 776 778 779 781 785 785 786 788 791 790 788 788 782 777 782 784 790 789 791 792 790 785 782 782 782 787
754 749 747 741 738 730 735 743 747 751 753 754 756 759 762 769 774 775 779 779 780 781 783 783 784 785 789 791 792 789 790 777 787 787 788 794 796 794 794 787 786 784 783 784 785
755 751 748 743 737 734 735 742 748 752 753 754 756 759 761 769 771 778 780 782 783 783 784 783 786 784 789 789 794 791 789 791 796 798 801 798 799 795 796 792 782 784 781 782 785
757 750 747 744 741 738 735 745 750 754 755 756 756 760 764 769 775 781 781 784 784 786 786 786 787 786 788 789 795 795 798 798 799 803 804 802 798 798 795 787 781 785 785 786 787
759 753 749 748 748 746 745 749 753 756 757 759 760 760 764 769 780 781 782 785 786 787 787 786 785 786 786 789 796 794 798 803 801 803 803 801 800 798 790 785 784 784 784 785 785
762 757 755 755 752 752 752 753 757 759 759 762 763 765 769 781 785 784 784 787 788 789 791 789 787 787 791 794 796 798 801 801 801 801 802 802 795 797 780 781 782 783 783 782 781
765 761 760 759 758 758 756 759 762 762 761 765 768 769 783 789 789 789 787 790 791 792 794 794 792 790 793 800 802 802 802 800 799 800 801 802 788 787 778 777 781 780 777 776 775
772 766 765 763 761 762 762 764 765 765 767 771 773 775 789 794 794 791 792 793 794 795 798 799 798 798 797 801 802 800 802 794 794 802 802 805 785 773 776 779 777 774 772 769 768
775 772 768 766 764 767 770 771 770 773 774 776 778 781 795 798 798 796 795 797 797 799 800 801 801 803 805 798 798 798 788 798 795 800 801 804 788 774 775 776 774 769 766 764 763
780 778 777 774 774 775 776 777 777 779 780 778 782 785 803 806 804 801 801 800 800 802 802 803 804 802 800 802 789 777 792 790 793 795 801 797 791 780 773 772 769 764 761 760 760
788 784 782 781 783 782 782 780 780 789 789 792 800 800 806 808 807 805 803 802 802 800 798 804 803 805 798 800 799 795 796 793 787 789 800 788 780 774 767 764 763 762 763 761 760
792 790 789 786 784 784 783 786 793 796 800 806 807 807 810 812 813 808 806 802 800 802 801 802 806 810 809 809 806 804 799 791 790 796 796 784 777 767 765 765 769 768 763 760 758
796 795 792 790 787 787 789 792 795 795 804 815 817 817 818 815 811 811 808 805 801 803 798 797 809 813 811 810 807 799 800 797 802 794 780 782 764 764 763 765 767 771 767 762 759
800 798 796 793 793 793 795 796 796 796 794 823 819 823 820 815 813 813 813 811 807 807 803 806 813 813 809 806 805 797 802 803 800 798 800 791 796 766 762 763 768 775 773 775 771
802 799 798 796 796 794 799 797 796 796 790 826 821 820 815 812 814 813 814 807 807 808 807 808 811 811 807 806 806 800 803 802 799 801 811 786 806 769 768 770 773 779 779 777 773
803 802 800 801 800 800 798 797 796 793 818 828 817 816 814 813 814 813 811 811 812 808 807 806 811 810 805 807 807 803 800 791 799 804 803 776 791 764 785 781 778 784 783 778 770
804 804 802 801 799 799 799 799 794 807 829 820 816 813 811 814 814 814 812 807 806 811 804 805 807 808 811 806 805 805 795 795 797 798 785 778 787 773 779 782 792 790 783 779 771
803 802 801 801 799 799 799 790 805 819 818 817 815 811 810 812 814 813 809 805 810 805 800 802 810 805 804 802 801 800 799 802 802 786 780 772 784 776 779 787 789 786 782 778 771
802 802 804 802 799 801 794 803 815 814 815 812 814 806 809 811 810 808 806 805 806 806 806 799 802 802 803 800 802 809 806 805 817 794 798 770 787 773 778 781 782 780 775 772 768
802 801 800 800 798 799 799 808 816 815 815 814 804 805 803 807 807 805 805 807 808 809 807 805 806 798 801 804 805 808 816 813 815 802 783 766 771 773 790 786 778 778 772 770 768
803 795 799 797 798 796 813 815 814 816 817 812 807 804 804 805 805 804 805 806 806 808 808 807 813 803 805 802 796 815 816 817 812 798 789 772 758 777 783 777 775 773 772 770 769
806 802 799 796 803 804 806 807 818 815 815 811 810 806 804 807 804 804 804 805 805 807 807 807 808 806 793 787 790 792 796 801 805 796 794 788 767 762 767 770 773 773 768 769 768
806 806 802 799 803 807 814 813 814 811 811 809 806 806 805 805 805 803 802 803 806 808 806 807 807 803 790 794 795 796 788 792 792 797 793 789 754 759 762 765 767 766 764 766 767
808 809 805 804 806 799 807 812 810 812 809 809 807 806 805 802 802 800 800 803 806 806 812 811 806 801 792 782 786 786 784 786 788 798 777 760 746 753 756 756 756 758 760 762 764
812 814 820 811 808 806 806 806 809 810 810 807 806 805 803 802 802 800 800 801 805 809 809 809 805 801 792 785 781 780 780 777 785 783 775 744 750 741 743 747 749 751 756 759 761
808 810 818 816 818 812 813 804 801 806 808 806 806 803 805 804 799 798 802 800 796 804 804 804 803 794 787 769 777 776 767 767 767 765 765 759 749 734 732 738 744 748 752 755 757
815 816 815 823 816 811 800 801 805 807 804 806 805 805 803 802 801 802 802 800 799 799 798 801 800 795 785 771 772 760 740 745 751 749 750 751 737 727 734 736 739 743 747 750 752
Wind_Speed
17 20 23 12 13 18 22 19 14 11 7 7 17 7 25 21 15 8 7 7 7 12 11 10 10 9 7 4 1 1 4 6 2 4 6 3 3 2 3 8 4 5 7 4 3
21 16 20 13 15 19 22 20 16 11 7 5 17 16 24 24 15 9 2 5 12 12 11 13 11 12 5 4 2 6 4 3 6 4 3 2 2 3 4 6 11 11 11 12 13
21 16 14 16 15 20 17 20 12 10 8 4 17 8 28 23 10 6 5 8 9 7 7 8 11 8 6 6 4 4 3 3 3 3 2 2 5 6 5 10 13 11 11 9 11
23 18 12 19 14 10 14 16 13 9 7 6 15 23 26 9 6 3 2 10 7 7 10 11 8 7 7 8 3 5 1 2 2 1 3 5 6 7 12 13 9 12 13 14 14
24 19 11 9 14 12 14 16 14 10 9 6 16 22 10 8 6 5 3 11 8 7 8 6 9 5 6 6 5 4 2 2 4 6 7 9 13 13 17 16 15 15 14 15 14
25 18 13 10 9 7 14 16 15 9 8 8 23 14 13 5 6 5 9 10 8 7 5 5 3 1 6 5 3 2 2 4 4 7 7 10 12 3 8 1 8 9 11 12 13
24 20 18 15 12 14 14 18 16 16 18 17 18 17 7 8 6 10 8 9 9 7 6 4 6 1 8 6 4 2 4 4 6 3 3 7 11 12 13 10 10 11 12 12 14
23 20 19 14 9 16 15 19 18 21 20 20 19 22 5 5 17 11 13 15 13 13 13 8 8 7 2 8 4 3 2 4 8 4 1 2 9 3 3 7 13 14 16 18 18
22 21 21 23 14 19 18 19 21 21 19 14 12 12 5 9 6 5 3 12 14 12 11 7 4 4 3 4 4 5 4 6 3 4 2 7 9 7 9 14 19 19 17 16 16
24 20 19 24 23 22 25 27 26 14 17 17 11 11 3 3 4 10 9 7 7 9 6 2 2 2 4 4 2 5 4 5 6 5 8 12 19 19 17 16 18 18 17 15 14
21 17 17 18 17 13 10 7 4 8 25 13 14 18 10 9 8 9 5 8 4 3 2 2 2 3 7 4 3 3 3 7 7 3 8 11 15 17 17 17 15 12 13 14 14
16 16 12 6 6 9 7 7 5 6 12 22 17 16 12 2 6 6 2 1 2 4 4 3 3 5 4 3 3 2 4 6 6 0 9 13 20 20 5 2 5 10 14 15 16
14 11 11 14 19 25 23 12 7 5 6 8 7 6 4 5 5 8 5 1 4 5 3 2 8 6 1 2 2 3 5 5 6 13 14 12 10 4 4 2 8 15 16 18 18
16 6 5 7 5 4 6 4 1 3 4 8 6 4 3 3 4 7 6 3 2 4 4 5 5 1 1 2 3 4 3 4 8 10 4 14 7 8 3 7 9 15 15 16 18
14 10 1 5 4 5 3 2 3 4 5 8 5 1 3 4 2 4 5 1 4 4 3 4 4 3 3 1 3 3 5 9 10 9 8 1 4 6 3 9 15 16 17 18 16
10 8 4 2 1 1 1 5 3 1 7 3 3 2 2 4 3 1 2 2 1 1 1 3 1 2 3 3 5 8 8 8 1 1 4 4 6 3 4 11 17 16 15 18 20
9 7 6 4 2 4 2 2 2 6 1 3 4 3 5 4 3 3 2 3 2 1 1 4 4 3 4 5 3 3 5 2 2 2 3 2 5 6 6 10 8 12 13 14 16
6 5 4 3 3 4 4 1 10 2 4 2 2 4 3 2 3 2 1 3 2 3 0 1 3 6 7 3 3 1 3 2 4 3 6 3 5 1 5 5 6 10 10 12 13
4 3 5 5 1 4 3 7 3 3 4 5 4 2 3 2 2 2 3 2 2 2 3 3 2 3 5 1 3 2 1 5 3 7 4 4 3 5 4 4 6 9 9 10 12
2 1 5 6 2 5 5 7 4 3 2 3 1 3 2 2 3 2 0 2 1 1 3 3 2 2 3 1 2 2 4 2 3 3 4 4 3 4 3 7 6 10 11 12 14
4 1 7 5 2 4 5 5 4 2 2 3 3 2 3 1 2 1 2 3 2 1 1 4 3 2 1 6 5 3 2 3 4 4 3 5 1 6 9 7 7 7 10 11 10
4 1 10 4 3 2 3 3 2 3 4 3 2 3 2 1 1 1 1 1 1 0 2 1 2 4 6 2 2 7 7 7 3 1 4 4 5 8 7 4 5 6 8 7 8
3 3 6 4 3 4 2 3 1 2 1 1 1 0 0 1 1 1 1 1 3 2 3 2 1 4 3 2 3 6 9 11 8 4 10 4 1 7 9 10 10 10 6 5 5
2 2 3 3 3 7 5 1 3 3 1 1 1 2 2 2 2 2 2 1 1 4 4 2 4 8 7 7 3 7 8 11 10 4 7 11 14 9 12 13 11 9 6 5 4
3 2 2 1 1 1 2 4 3 3 3 3 2 4 3 2 3 4 2 3 4 5 3 3 6 5 14 18 17 17 17 14 14 17 9 6 11 11 13 13 10 9 7 7 6
0 1 2 1 1 3 2 6 7 4 3 3 4 3 3 4 4 3 3 4 4 7 6 4 4 8 13 8 7 12 17 19 19 19 20 21 23 17 10 10 10 9 9 9 8
2 2 2 3 2 3 1 3 6 2 6 3 2 4 7 6 4 8 9 11 8 5 7 5 4 4 5 4 13 15 14 21 15 12 17 13 13 8 11 13 14 12 11 11 9
Wind_Direction
340 344 341 343 346 285 177 179 157 152 147 181 199 234 175 169 163 162 184 106 144 149 133 142 139 136 150 139 102 297 238 226 190 203 102 117 234 100 331 280 257 246 281 350 323
354 348 2 356 340 345 160 160 142 134 124 79 171 179 163 166 154 148 69 130 141 145 154 157 148 155 136 133 132 207 243 263 32 48 117 133 279 355 290 250 254 255 261 269 276
356 355 354 15 35 347 161 151 143 129 128 81 172 171 154 155 139 68 114 138 145 141 152 149 147 149 138 161 151 168 261 73 93 29 336 277 253 249 273 265 261 277 288 296 293
359 357 360 34 43 13 55 133 131 110 112 90 152 149 142 153 112 49 122 149 143 141 139 145 163 158 148 154 152 192 254 330 25 83 294 286 311 258 245 250 306 289 290 288 281
9 10 19 40 38 40 47 112 111 102 107 105 145 133 98 59 51 5 165 141 133 145 155 167 165 151 144 133 163 234 155 267 281 289 282 283 267 269 268 267 268 272 272 270 273
15 28 45 38 46 73 65 107 107 92 112 117 140 147 49 78 356 87 119 142 141 135 138 166 167 121 108 126 228 54 231 272 283 287 279 285 287 307 263 272 281 273 270 269 267
26 40 46 40 63 103 86 97 91 84 96 130 121 119 79 49 79 81 94 119 120 121 121 98 112 214 134 136 132 142 269 226 236 263 287 324 274 231 266 269 279 277 270 270 274
35 39 25 27 75 101 101 92 88 91 96 108 104 114 70 64 93 72 90 95 95 96 99 83 92 83 78 115 136 199 252 258 133 187 126 285 276 205 201 277 278 285 281 284 284
29 35 38 34 113 105 98 92 86 95 84 96 68 97 74 73 45 38 81 103 96 88 86 82 59 85 143 181 175 198 229 221 235 192 235 225 288 300 303 288 289 289 288 289 290
34 43 56 62 86 106 110 96 83 71 105 76 42 86 43 65 330 77 92 101 93 115 103 77 77 144 172 196 226 180 226 205 253 154 230 263 266 277 281 282 283 289 294 297 300
39 58 73 79 91 95 111 129 39 39 45 65 74 85 74 73 43 60 84 98 120 207 138 109 173 153 99 42 29 15 302 284 284 299 300 274 285 289 288 283 283 304 315 307 310
44 66 78 77 88 59 100 86 58 125 64 44 51 58 52 25 98 61 342 197 204 109 141 166 125 107 84 51 25 353 305 293 304 5 301 292 295 287 330 2 328 322 321 319 313
24 64 75 91 89 72 85 78 101 124 77 45 31 28 344 1 67 32 13 356 73 98 88 161 110 142 177 149 275 225 282 330 308 317 280 328 287 160 141 284 11 350 334 330 329
22 42 101 74 49 66 55 76 24 286 80 16 29 55 311 278 61 27 11 349 77 99 55 87 144 262 207 274 270 263 23 305 312 341 309 0 296 293 309 303 354 344 340 337 336
20 20 28 304 103 23 49 355 321 249 74 2 9 22 342 39 120 63 355 355 62 101 253 97 158 187 245 6 249 14 321 302 302 307 323 100 245 279 17 318 329 335 331 333 326
7 9 346 333 8 76 320 331 313 7 61 353 354 19 100 43 52 9 8 57 15 13 40 95 81 257 327 287 260 313 301 290 57 259 263 220 204 247 320 323 326 329 334 336 332
0 356 4 316 352 240 261 264 98 43 199 64 58 68 64 52 69 15 28 80 27 73 84 168 192 178 239 252 179 249 306 312 231 241 277 96 234 301 325 344 322 321 325 327 321
352 14 4 0 280 180 195 150 63 90 99 108 114 122 62 344 71 22 269 122 108 309 285 230 194 199 163 278 324 313 326 333 293 299 315 184 249 293 345 358 314 315 310 309 330
24 70 40 348 151 207 238 58 93 105 158 149 173 139 110 112 301 260 39 26 15 337 340 315 121 140 214 232 296 44 238 34 327 233 274 225 266 236 349 308 329 329 328 341 346
336 248 58 15 13 232 63 89 91 68 123 249 84 297 125 102 222 232 323 101 289 300 304 30 261 113 98 228 249 192 19 226 181 280 283 223 252 264 287 294 312 317 342 351 354
329 302 5 18 18 57 78 79 107 121 253 301 57 115 71 74 352 54 28 125 218 105 282 359 28 122 268 207 169 149 226 210 307 274 296 307 205 205 216 253 293 323 338 345 352
317 41 342 15 50 7 67 87 160 139 181 178 274 29 36 174 139 308 15 4 140 166 338 101 291 274 245 83 306 249 248 214 250 102 250 288 282 184 200 207 224 280 322 340 347
13 329 341 331 106 78 69 99 33 170 155 199 143 138 105 276 275 285 256 85 196 222 346 94 243 297 183 187 201 232 230 233 250 305 252 272 278 184 192 210 235 271 319 319 329
301 318 2 54 350 131 142 165 139 166 166 164 333 256 245 227 208 310 278 157 188 223 60 315 264 258 282 328 325 251 234 219 231 238 263 244 280 196 216 224 233 256 258 267 272
10 67 348 265 192 180 202 162 185 213 244 216 192 252 243 265 240 249 242 213 198 157 203 222 269 274 269 271 271 264 256 247 220 232 261 268 290 290 226 226 230 243 238 250 254
3 192 179 70 351 251 224 207 191 186 234 200 252 186 233 275 297 304 290 235 259 183 212 213 276 296 287 259 265 257 250 242 242 241 244 261 274 271 247 221 228 233 236 239 248
134 128 299 122 226 235 243 207 215 189 197 267 262 258 239 270 305 301 294 280 276 247 222 224 257 309 269 323 309 279 252 229 232 227 227 240 257 258 225 223 230 228 227 235 242